AA5AW Weather Reports


time (UTC)temp
C
wind
direction
speed
KPH
gust
KPH
rain 1hr
cm
rain 24hr
cm
rain mn
cm
humidity
%
barometer
mb
20260506084548 23 206 0.0 3.2 0.00 0.00 0.00 93 1010.0
20260506083015 23 162 0.0 3.2 0.00 0.00 0.00 93 1010.0
20260506081554 23 53 0.0 3.2 0.00 0.00 0.00 93 1010.0
20260506073035 23 114 0.0 4.8 0.00 0.00 0.00 92 1010.0
20260506071600 23 240 0.0 4.8 0.00 0.00 0.00 92 1010.2
20260506061601 23 196 0.0 6.4 0.00 0.00 0.00 92 1010.3
20260506044552 23 7 0.0 6.4 0.00 0.00 0.00 91 1010.2
20260506043036 23 215 1.6 6.4 0.00 0.00 0.00 91 1010.2
20260506041538 23 200 0.0 6.4 0.00 0.00 0.00 91 1010.2
20260506040009 23 244 1.6 4.8 0.00 0.00 0.00 91 1010.0
20260506034553 23 295 0.0 8.0 0.00 0.00 0.00 91 1009.9
20260506033029 23 186 1.6 6.4 0.00 0.00 0.00 91 1009.6
20260506031518 23 240 1.6 11.3 0.00 0.00 0.00 90 1009.4
20260506030005 23 212 3.2 6.4 0.00 0.00 0.00 89 1009.2
20260506024557 24 194 0.0 9.7 0.00 0.00 0.00 88 1008.9
20260506023037 24 229 3.2 11.3 0.00 0.00 0.00 88 1008.7
20260506021528 24 228 1.6 8.0 0.00 0.00 0.00 87 1008.6
20260506020011 25 227 1.6 11.3 0.00 0.00 0.00 87 1008.5
20260506014556 25 111 4.8 9.7 0.00 0.00 0.00 87 1008.3
20260506014503 25 205 4.8 9.7 0.00 0.00 0.00 87 1008.3
20260506013051 25 226 1.6 14.5 0.00 0.00 0.00 87 1008.1
20260506011548 25 195 1.6 6.4 0.00 0.00 0.00 86 1007.8
20260506010044 25 289 1.6 16.1 0.00 0.00 0.00 85 1007.6
20260506004559 25 192 3.2 9.7 0.00 0.00 0.00 84 1007.3
20260506004506 25 110 1.6 14.5 0.00 0.00 0.00 84 1007.3
20260506003042 26 215 3.2 12.9 0.00 0.00 0.00 83 1007.1
20260506001535 26 360 3.2 8.0 0.00 0.00 0.00 81 1007.0
20260506000059 26 206 1.6 16.1 0.00 0.00 0.00 79 1007.1
20260505234545 27 150 3.2 12.9 0.00 0.00 0.00 78 1007.0
20260505233041 27 217 1.6 6.4 0.00 0.00 0.00 78 1007.0
20260505231529 27 241 3.2 11.3 0.00 0.00 0.00 77 1007.0
20260505230007 27 185 3.2 11.3 0.00 0.00 0.00 76 1007.1
20260505224551 28 120 3.2 16.1 0.00 0.00 0.00 74 1007.3
20260505223019 28 186 6.4 16.1 0.00 0.00 0.00 74 1007.3
20260505221549 28 62 4.8 14.5 0.00 0.00 0.00 74 1007.3
20260505220042 28 289 3.2 17.7 0.00 0.00 0.00 73 1007.3
20260505214600 28 283 6.4 20.9 0.00 0.00 0.00 73 1007.3
20260505213023 28 255 4.8 17.7 0.00 0.00 0.00 73 1007.3
20260505211542 28 210 4.8 14.5 0.00 0.00 0.00 74 1007.6
20260505210019 28 254 4.8 14.5 0.00 0.00 0.00 71 1007.9
20260505204601 28 267 6.4 19.3 0.00 0.00 0.00 73 1008.2
20260505203025 28 224 6.4 16.1 0.00 0.00 0.00 73 1008.4
20260505201556 28 269 6.4 19.3 0.00 0.00 0.00 72 1008.6
20260505200025 28 204 8.0 19.3 0.00 0.00 0.00 71 1008.8
20260505194601 28 252 4.8 14.5 0.00 0.00 0.00 71 1008.8
20260505193035 27 169 6.4 17.7 0.00 0.00 0.00 75 1009.2
20260505191550 27 248 6.4 19.3 0.00 0.00 0.00 75 1009.1
20260505190017 27 193 6.4 16.1 0.00 0.00 0.00 77 1009.2
20260505184539 27 185 4.8 17.7 0.00 0.00 0.00 77 1009.4
20260505183003 27 236 3.2 11.3 0.00 0.00 0.00 78 1009.5
20260505181528 26 183 8.0 20.9 0.00 0.00 0.00 79 1009.5
20260505180100 26 197 3.2 20.9 0.00 0.00 0.00 78 1009.6
20260505174516 26 157 6.4 22.5 0.00 0.00 0.00 78 1009.6
20260505173051 25 278 3.2 11.3 0.00 0.00 0.00 84 1009.7
20260505171513 25 256 4.8 14.5 0.00 0.00 0.00 82 1009.9
20260505170043 25 194 3.2 16.1 0.00 0.00 0.00 83 1010.1
20260505164507 24 295 1.6 8.0 0.00 0.00 0.00 85 1010.2
20260505163040 23 220 1.6 12.9 0.00 0.00 0.00 86 1010.2
20260505161533 23 221 1.6 12.9 0.00 0.00 0.00 86 1010.3
20260505153105 23 135 3.2 14.5 0.00 0.00 0.00 86 1009.7
20260505151539 23 210 1.6 16.1 0.00 0.00 0.00 88 1009.9
20260505124544 20 250 3.2 8.0 0.00 0.00 0.00 92 1009.9
20260505123021 20 195 0.0 11.3 0.00 0.00 0.00 93 1009.5
20260505121549 20 138 3.2 16.1 0.00 0.00 0.00 93 1009.1
20260505120013 20 161 0.0 9.7 0.00 0.00 0.00 93 1009.3
20260505114559 20 131 1.6 8.0 0.00 0.00 0.00 93 1009.6
20260505114504 20 212 1.6 8.0 0.00 0.00 0.00 93 1009.6
20260505113110 20 235 3.2 9.7 0.00 0.00 0.00 93 1009.2
20260505111521 19 238 1.6 9.7 0.00 0.00 0.00 93 1009.1
20260505101542 19 115 0.0 8.0 0.00 0.00 0.00 93 1009.1
20260505100029 18 150 1.6 4.8 0.00 0.00 0.00 93 1009.1
20260505094523 18 90 0.0 4.8 0.00 0.00 0.00 93 1009.2
20260505093007 18 198 0.0 3.2 0.00 0.00 0.00 93 1009.4
20260505091556 18 208 0.0 3.2 0.00 0.00 0.00 93 1009.8
20260505091501 18 208 0.0 3.2 0.00 0.00 0.00 93 1009.8
20260505090051 18 282 0.0 6.4 0.00 0.00 0.00 92 1009.8